Time,TemperatureF,DewpointF,PressureIn,WindDirection,WindDirectionDegrees,WindSpeedMPH,WindSpeedGustMPH,Humidity,HourlyPrecipIn,Conditions,Clouds,dailyrainin,SoftwareType,DateUTC
2013-08-07 00:01:00,60.5,46.1,30.09,SE,138,0.0,0.0,59,0.00,,,0.00,vanprod-2.5-rc3,2013-08-07 06:01:00,
2013-08-07 00:06:00,60.5,46.6,30.09,SE,138,0.0,0.0,60,0.00,,,0.00,vanprod-2.5-rc3,2013-08-07 06:06:00,
2013-08-07 00:11:00,60.4,46.5,30.09,SE,138,0.0,0.0,60,0.00,,,0.00,vanprod-2.5-rc3,2013-08-07 06:11:00,
2013-08-07 00:16:00,60.4,46.5,30.09,SE,138,0.0,0.0,60,0.00,,,0.00,vanprod-2.5-rc3,2013-08-07 06:16:00,
2013-08-07 00:21:00,60.3,45.9,30.09,SE,138,0.0,0.0,59,0.00,,,0.00,vanprod-2.5-rc3,2013-08-07 06:21:00,
2013-08-07 00:26:00,60.3,45.5,30.09,SE,138,0.0,0.0,58,0.00,,,0.00,vanprod-2.5-rc3,2013-08-07 06:26:00,
2013-08-07 00:31:00,60.4,46.0,30.09,SE,138,0.0,0.0,59,0.00,,,0.00,vanprod-2.5-rc3,2013-08-07 06:31:00,
2013-08-07 00:36:00,60.3,45.5,30.09,SE,138,0.0,0.0,58,0.00,,,0.00,vanprod-2.5-rc3,2013-08-07 06:36:00,
2013-08-07 00:41:00,60.0,45.6,30.09,SE,138,0.0,0.0,59,0.00,,,0.00,vanprod-2.5-rc3,2013-08-07 06:41:00,
2013-08-07 00:46:00,59.6,45.7,30.09,SE,138,0.0,0.0,60,0.00,,,0.00,vanprod-2.5-rc3,2013-08-07 06:46:00,
2013-08-07 00:51:00,59.2,45.8,30.08,SE,138,0.0,0.0,61,0.00,,,0.00,vanprod-2.5-rc3,2013-08-07 06:51:00,
2013-08-07 00:56:00,59.0,45.6,30.08,SE,138,0.0,0.0,61,0.00,,,0.00,vanprod-2.5-rc3,2013-08-07 06:56:00,
2013-08-07 01:01:00,59.0,45.6,30.09,SE,138,0.0,0.0,61,0.00,,,0.00,vanprod-2.5-rc3,2013-08-07 07:01:00,
2013-08-07 01:06:00,58.6,45.6,30.09,SE,138,0.0,0.0,62,0.00,,,0.00,vanprod-2.5-rc3,2013-08-07 07:06:00,
2013-08-07 01:11:00,58.6,45.2,30.09,SE,135,0.0,0.0,61,0.00,,,0.00,vanprod-2.5-rc3,2013-08-07 07:11:00,
2013-08-07 01:16:00,58.5,45.1,30.09,SE,135,0.0,0.0,61,0.00,,,0.00,vanprod-2.5-rc3,2013-08-07 07:16:00,
2013-08-07 01:21:00,58.4,45.4,30.09,ENE,65,2.0,2.0,62,0.00,,,0.00,vanprod-2.5-rc3,2013-08-07 07:21:00,
2013-08-07 01:26:00,58.5,45.5,30.09,East,85,0.0,0.0,62,0.00,,,0.00,vanprod-2.5-rc3,2013-08-07 07:26:00,
2013-08-07 01:31:00,59.0,46.0,30.09,ESE,106,0.0,0.0,62,0.00,,,0.00,vanprod-2.5-rc3,2013-08-07 07:31:00,
2013-08-07 01:36:00,59.2,45.8,30.09,ESE,108,0.0,0.0,61,0.00,,,0.00,vanprod-2.5-rc3,2013-08-07 07:36:00,
2013-08-07 01:41:00,59.8,45.9,30.08,ESE,111,2.0,0.0,60,0.00,,,0.00,vanprod-2.5-rc3,2013-08-07 07:41:00,
2013-08-07 01:46:00,60.1,45.7,30.07,ESE,117,0.0,0.0,59,0.00,,,0.00,vanprod-2.5-rc3,2013-08-07 07:46:00,
2013-08-07 01:51:00,60.5,46.1,30.07,ESE,114,0.0,0.0,59,0.00,,,0.00,vanprod-2.5-rc3,2013-08-07 07:51:00,
2013-08-07 01:56:00,60.7,46.3,30.07,ESE,111,0.0,0.0,59,0.00,,,0.00,vanprod-2.5-rc3,2013-08-07 07:56:00,
2013-08-07 02:01:00,60.8,45.9,30.08,East,97,1.0,0.0,58,0.00,,,0.00,vanprod-2.5-rc3,2013-08-07 08:01:00,
2013-08-07 02:06:00,60.8,45.9,30.08,East,89,1.0,0.0,58,0.00,,,0.00,vanprod-2.5-rc3,2013-08-07 08:06:00,
2013-08-07 02:11:00,60.7,45.9,30.09,East,95,0.0,0.0,58,0.00,,,0.00,vanprod-2.5-rc3,2013-08-07 08:11:00,
2013-08-07 02:16:00,60.6,45.8,30.09,East,80,0.0,0.0,58,0.00,,,0.00,vanprod-2.5-rc3,2013-08-07 08:16:00,
2013-08-07 02:21:00,60.4,45.6,30.09,East,86,0.0,0.0,58,0.00,,,0.00,vanprod-2.5-rc3,2013-08-07 08:21:00,
2013-08-07 02:26:00,60.1,45.7,30.07,East,86,0.0,0.0,59,0.00,,,0.00,vanprod-2.5-rc3,2013-08-07 08:26:00,
2013-08-07 02:31:00,59.9,45.6,30.09,East,87,0.0,0.0,59,0.00,,,0.00,vanprod-2.5-rc3,2013-08-07 08:31:00,
2013-08-07 02:36:00,59.7,45.4,30.09,East,87,0.0,0.0,59,0.00,,,0.00,vanprod-2.5-rc3,2013-08-07 08:36:00,
2013-08-07 02:41:00,59.5,45.2,30.09,East,87,0.0,0.0,59,0.00,,,0.00,vanprod-2.5-rc3,2013-08-07 08:41:00,
2013-08-07 02:46:00,59.0,45.1,30.09,East,87,0.0,0.0,60,0.00,,,0.00,vanprod-2.5-rc3,2013-08-07 08:46:00,
2013-08-07 02:51:00,59.0,45.1,30.09,East,87,0.0,0.0,60,0.00,,,0.00,vanprod-2.5-rc3,2013-08-07 08:51:00,
2013-08-07 02:56:00,58.4,45.0,30.07,East,87,0.0,0.0,61,0.00,,,0.00,vanprod-2.5-rc3,2013-08-07 08:56:00,
2013-08-07 03:01:00,58.0,44.6,30.07,East,87,0.0,0.0,61,0.00,,,0.00,vanprod-2.5-rc3,2013-08-07 09:01:00,
2013-08-07 03:06:00,57.6,44.7,30.08,East,86,2.0,3.0,62,0.00,,,0.00,vanprod-2.5-rc3,2013-08-07 09:06:00,
2013-08-07 03:11:00,57.3,44.8,30.09,East,86,0.0,0.0,63,0.00,,,0.00,vanprod-2.5-rc3,2013-08-07 09:11:00,
2013-08-07 03:16:00,57.2,45.1,30.09,East,86,0.0,0.0,64,0.00,,,0.00,vanprod-2.5-rc3,2013-08-07 09:16:00,
2013-08-07 03:21:00,57.1,45.1,30.09,East,86,0.0,0.0,64,0.00,,,0.00,vanprod-2.5-rc3,2013-08-07 09:21:00,
2013-08-07 03:26:00,56.9,45.3,30.09,East,89,0.0,0.0,65,0.00,,,0.00,vanprod-2.5-rc3,2013-08-07 09:26:00,
2013-08-07 03:31:00,57.0,45.8,30.06,East,96,0.0,0.0,66,0.00,,,0.00,vanprod-2.5-rc3,2013-08-07 09:31:00,
2013-08-07 03:36:00,57.1,45.9,30.06,East,98,0.0,0.0,66,0.00,,,0.00,vanprod-2.5-rc3,2013-08-07 09:36:00,
2013-08-07 03:41:00,57.3,45.7,30.06,East,99,0.0,0.0,65,0.00,,,0.00,vanprod-2.5-rc3,2013-08-07 09:41:00,
2013-08-07 03:46:00,57.3,45.2,30.08,ESE,105,0.0,0.0,64,0.00,,,0.00,vanprod-2.5-rc3,2013-08-07 09:46:00,
2013-08-07 03:51:00,57.2,45.6,30.08,ESE,105,0.0,0.0,65,0.00,,,0.00,vanprod-2.5-rc3,2013-08-07 09:51:00,
2013-08-07 03:56:00,56.9,45.3,30.08,ESE,105,0.0,0.0,65,0.00,,,0.00,vanprod-2.5-rc3,2013-08-07 09:56:00,
2013-08-07 04:01:00,56.7,44.7,30.08,ESE,105,0.0,0.0,64,0.00,,,0.00,vanprod-2.5-rc3,2013-08-07 10:01:00,
2013-08-07 04:06:00,56.2,44.2,30.06,ESE,105,0.0,0.0,64,0.00,,,0.00,vanprod-2.5-rc3,2013-08-07 10:06:00,
2013-08-07 04:11:00,55.9,44.3,30.06,ESE,103,0.0,0.0,65,0.00,,,0.00,vanprod-2.5-rc3,2013-08-07 10:11:00,
2013-08-07 04:16:00,55.8,44.2,30.06,East,101,0.0,0.0,65,0.00,,,0.00,vanprod-2.5-rc3,2013-08-07 10:16:00,
2013-08-07 04:21:00,55.7,44.5,30.06,East,88,0.0,0.0,66,0.00,,,0.00,vanprod-2.5-rc3,2013-08-07 10:21:00,
2013-08-07 04:26:00,55.9,45.1,30.08,East,92,0.0,0.0,67,0.00,,,0.00,vanprod-2.5-rc3,2013-08-07 10:26:00,
2013-08-07 04:31:00,56.2,45.0,30.08,East,92,0.0,0.0,66,0.00,,,0.00,vanprod-2.5-rc3,2013-08-07 10:31:00,
2013-08-07 04:36:00,56.3,45.1,30.08,East,92,0.0,0.0,66,0.00,,,0.00,vanprod-2.5-rc3,2013-08-07 10:36:00,
2013-08-07 04:41:00,56.3,45.5,30.08,East,92,0.0,0.0,67,0.00,,,0.00,vanprod-2.5-rc3,2013-08-07 10:41:00,
2013-08-07 04:46:00,56.3,45.5,30.08,East,93,0.0,0.0,67,0.00,,,0.00,vanprod-2.5-rc3,2013-08-07 10:46:00,
2013-08-07 04:51:00,56.3,45.9,30.09,SE,129,0.0,0.0,68,0.00,,,0.00,vanprod-2.5-rc3,2013-08-07 10:51:00,
2013-08-07 04:56:00,56.4,46.0,30.09,SE,129,0.0,0.0,68,0.00,,,0.00,vanprod-2.5-rc3,2013-08-07 10:56:00,
2013-08-07 05:01:00,56.4,45.6,30.08,East,81,1.0,0.0,67,0.00,,,0.00,vanprod-2.5-rc3,2013-08-07 11:01:00,
2013-08-07 05:06:00,56.6,45.8,30.09,East,84,1.0,0.0,67,0.00,,,0.00,vanprod-2.5-rc3,2013-08-07 11:06:00,
2013-08-07 05:11:00,56.8,46.0,30.09,East,94,0.0,0.0,67,0.00,,,0.00,vanprod-2.5-rc3,2013-08-07 11:11:00,
2013-08-07 05:16:00,56.9,46.1,30.09,East,91,0.0,0.0,67,0.00,,,0.00,vanprod-2.5-rc3,2013-08-07 11:16:00,
2013-08-07 05:21:00,57.1,45.9,30.09,East,89,0.0,0.0,66,0.00,,,0.00,vanprod-2.5-rc3,2013-08-07 11:21:00,
2013-08-07 05:26:00,57.1,45.9,30.09,East,89,0.0,0.0,66,0.00,,,0.00,vanprod-2.5-rc3,2013-08-07 11:26:00,
2013-08-07 05:31:00,57.1,45.9,30.09,East,89,0.0,0.0,66,0.00,,,0.00,vanprod-2.5-rc3,2013-08-07 11:31:00,
2013-08-07 05:36:00,57.1,46.3,30.09,ESE,107,0.0,0.0,67,0.00,,,0.00,vanprod-2.5-rc3,2013-08-07 11:36:00,
2013-08-07 05:41:00,57.2,46.0,30.09,ESE,107,0.0,0.0,66,0.00,,,0.00,vanprod-2.5-rc3,2013-08-07 11:41:00,
2013-08-07 05:46:00,57.1,45.9,30.09,ESE,107,0.0,0.0,66,0.00,,,0.00,vanprod-2.5-rc3,2013-08-07 11:46:00,
2013-08-07 05:51:00,57.1,46.3,30.09,ESE,106,0.0,0.0,67,0.00,,,0.00,vanprod-2.5-rc3,2013-08-07 11:51:00,
2013-08-07 05:56:00,56.9,46.1,30.08,ESE,103,0.0,0.0,67,0.00,,,0.00,vanprod-2.5-rc3,2013-08-07 11:56:00,
2013-08-07 06:01:00,56.9,46.1,30.09,East,89,0.0,0.0,67,0.00,,,0.00,vanprod-2.5-rc3,2013-08-07 12:01:00,
2013-08-07 06:06:00,56.9,46.5,30.09,ENE,67,0.0,0.0,68,0.00,,,0.00,vanprod-2.5-rc3,2013-08-07 12:06:00,
2013-08-07 06:11:00,56.9,46.5,30.09,ENE,74,3.0,3.0,68,0.00,,,0.00,vanprod-2.5-rc3,2013-08-07 12:11:00,
2013-08-07 06:16:00,57.0,46.6,30.09,ENE,72,0.0,0.0,68,0.00,,,0.00,vanprod-2.5-rc3,2013-08-07 12:16:00,
2013-08-07 06:21:00,57.1,46.7,30.07,ENE,69,0.0,0.0,68,0.00,,,0.00,vanprod-2.5-rc3,2013-08-07 12:21:00,
2013-08-07 06:26:00,57.2,46.7,30.07,ENE,70,0.0,0.0,68,0.00,,,0.00,vanprod-2.5-rc3,2013-08-07 12:26:00,
2013-08-07 06:31:00,57.3,46.5,30.09,ENE,65,0.0,0.0,67,0.00,,,0.00,vanprod-2.5-rc3,2013-08-07 12:31:00,
2013-08-07 06:36:00,57.3,46.5,30.09,ENE,69,0.0,0.0,67,0.00,,,0.00,vanprod-2.5-rc3,2013-08-07 12:36:00,
2013-08-07 06:41:00,57.5,46.6,30.08,ENE,76,0.0,0.0,67,0.00,,,0.00,vanprod-2.5-rc3,2013-08-07 12:41:00,
2013-08-07 06:46:00,57.5,47.0,30.08,ESE,123,0.0,0.0,68,0.00,,,0.00,vanprod-2.5-rc3,2013-08-07 12:46:00,
2013-08-07 06:51:00,57.4,46.9,30.07,SE,140,0.0,0.0,68,0.00,,,0.00,vanprod-2.5-rc3,2013-08-07 12:51:00,
2013-08-07 06:56:00,57.3,46.8,30.07,SE,139,0.0,0.0,68,0.00,,,0.00,vanprod-2.5-rc3,2013-08-07 12:56:00,
2013-08-07 07:01:00,57.5,46.6,30.08,East,98,0.0,0.0,67,0.00,,,0.00,vanprod-2.5-rc3,2013-08-07 13:01:00,
2013-08-07 07:06:00,58.1,46.8,30.08,ENE,78,0.0,0.0,66,0.00,,,0.00,vanprod-2.5-rc3,2013-08-07 13:06:00,
2013-08-07 07:11:00,58.6,46.9,30.07,East,82,1.0,4.0,65,0.00,,,0.00,vanprod-2.5-rc3,2013-08-07 13:11:00,
2013-08-07 07:16:00,59.0,46.4,30.10,ENE,63,0.0,0.0,63,0.00,,,0.00,vanprod-2.5-rc3,2013-08-07 13:16:00,
2013-08-07 07:21:00,59.1,46.1,30.10,ENE,69,0.0,0.0,62,0.00,,,0.00,vanprod-2.5-rc3,2013-08-07 13:21:00,
2013-08-07 07:26:00,59.4,46.4,30.10,ENE,65,0.0,0.0,62,0.00,,,0.00,vanprod-2.5-rc3,2013-08-07 13:26:00,
2013-08-07 07:31:00,59.6,47.0,30.07,NE,39,0.0,0.0,63,0.00,,,0.00,vanprod-2.5-rc3,2013-08-07 13:31:00,
2013-08-07 07:36:00,59.4,46.8,30.07,NE,51,4.0,4.0,63,0.00,,,0.00,vanprod-2.5-rc3,2013-08-07 13:36:00,
2013-08-07 07:41:00,59.1,46.5,30.10,ENE,60,1.0,2.0,63,0.00,,,0.00,vanprod-2.5-rc3,2013-08-07 13:41:00,
2013-08-07 07:46:00,59.0,46.9,30.08,ENE,60,1.0,0.0,64,0.00,,,0.00,vanprod-2.5-rc3,2013-08-07 13:46:00,
2013-08-07 07:51:00,59.0,46.9,30.08,ENE,75,4.0,4.0,64,0.00,,,0.00,vanprod-2.5-rc3,2013-08-07 13:51:00,
2013-08-07 07:56:00,59.1,46.9,30.08,ENE,75,3.0,3.0,64,0.00,,,0.00,vanprod-2.5-rc3,2013-08-07 13:56:00,
2013-08-07 08:01:00,59.4,47.2,30.10,ENE,78,0.0,0.0,64,0.00,,,0.00,vanprod-2.5-rc3,2013-08-07 14:01:00,
2013-08-07 08:06:00,59.8,47.6,30.09,ENE,64,0.0,0.0,64,0.00,,,0.00,vanprod-2.5-rc3,2013-08-07 14:06:00,
2013-08-07 08:11:00,60.0,47.4,30.09,ENE,62,0.0,0.0,63,0.00,,,0.00,vanprod-2.5-rc3,2013-08-07 14:11:00,
2013-08-07 08:16:00,60.2,47.6,30.09,ENE,68,0.0,0.0,63,0.00,,,0.00,vanprod-2.5-rc3,2013-08-07 14:16:00,
2013-08-07 08:21:00,60.4,47.3,30.09,ENE,64,0.0,0.0,62,0.00,,,0.00,vanprod-2.5-rc3,2013-08-07 14:21:00,
2013-08-07 08:26:00,60.8,47.7,30.09,ENE,65,0.0,0.0,62,0.00,,,0.00,vanprod-2.5-rc3,2013-08-07 14:26:00,
2013-08-07 08:31:00,61.2,48.1,30.09,ENE,73,0.0,0.0,62,0.00,,,0.00,vanprod-2.5-rc3,2013-08-07 14:31:00,
2013-08-07 08:36:00,61.7,48.1,30.10,ENE,74,0.0,0.0,61,0.00,,,0.00,vanprod-2.5-rc3,2013-08-07 14:36:00,
2013-08-07 08:41:00,62.1,48.5,30.10,ENE,69,0.0,0.0,61,0.00,,,0.00,vanprod-2.5-rc3,2013-08-07 14:41:00,
2013-08-07 08:46:00,62.5,48.4,30.10,NE,54,0.0,0.0,60,0.00,,,0.00,vanprod-2.5-rc3,2013-08-07 14:46:00,
2013-08-07 08:51:00,62.9,48.4,30.10,ENE,59,0.0,0.0,59,0.00,,,0.00,vanprod-2.5-rc3,2013-08-07 14:51:00,
2013-08-07 08:56:00,63.4,49.3,30.10,ENE,61,0.0,0.0,60,0.00,,,0.00,vanprod-2.5-rc3,2013-08-07 14:56:00,
2013-08-07 09:01:00,63.8,49.2,30.09,NNE,31,0.0,0.0,59,0.00,,,0.00,vanprod-2.5-rc3,2013-08-07 15:01:00,
2013-08-07 09:06:00,64.2,49.1,30.09,ENE,77,0.0,0.0,58,0.00,,,0.00,vanprod-2.5-rc3,2013-08-07 15:06:00,
2013-08-07 09:11:00,64.8,49.7,30.10,NE,49,0.0,0.0,58,0.00,,,0.00,vanprod-2.5-rc3,2013-08-07 15:11:00,
2013-08-07 09:16:00,65.3,48.7,30.11,East,93,0.0,0.0,55,0.00,,,0.00,vanprod-2.5-rc3,2013-08-07 15:16:00,
2013-08-07 09:21:00,66.0,48.4,30.11,ENE,77,0.0,0.0,53,0.00,,,0.00,vanprod-2.5-rc3,2013-08-07 15:21:00,
2013-08-07 09:26:00,66.5,47.8,30.09,ENE,68,2.0,0.0,51,0.00,,,0.00,vanprod-2.5-rc3,2013-08-07 15:26:00,
2013-08-07 09:31:00,66.9,48.7,30.09,NE,56,0.0,0.0,52,0.00,,,0.00,vanprod-2.5-rc3,2013-08-07 15:31:00,
2013-08-07 09:36:00,66.8,48.1,30.09,NE,47,4.0,4.0,51,0.00,,,0.00,vanprod-2.5-rc3,2013-08-07 15:36:00,
2013-08-07 09:41:00,66.6,48.4,30.09,East,81,1.0,2.0,52,0.00,,,0.00,vanprod-2.5-rc3,2013-08-07 15:41:00,
2013-08-07 09:46:00,66.8,48.1,30.09,ENE,58,1.0,1.0,51,0.00,,,0.00,vanprod-2.5-rc3,2013-08-07 15:46:00,
2013-08-07 09:51:00,66.8,49.1,30.09,NNE,15,0.0,0.0,53,0.00,,,0.00,vanprod-2.5-rc3,2013-08-07 15:51:00,
2013-08-07 09:56:00,67.1,48.9,30.09,ENE,71,1.0,0.0,52,0.00,,,0.00,vanprod-2.5-rc3,2013-08-07 15:56:00,
2013-08-07 10:01:00,67.8,49.0,30.10,ENE,76,1.0,0.0,51,0.00,,,0.00,vanprod-2.5-rc3,2013-08-07 16:01:00,
2013-08-07 10:06:00,68.6,49.8,30.10,NNE,29,1.0,0.0,51,0.00,,,0.00,vanprod-2.5-rc3,2013-08-07 16:06:00,
2013-08-07 10:11:00,68.9,50.0,30.11,North,3,3.0,0.0,51,0.00,,,0.00,vanprod-2.5-rc3,2013-08-07 16:11:00,
2013-08-07 10:16:00,69.1,49.2,30.10,NE,51,3.0,0.0,49,0.00,,,0.00,vanprod-2.5-rc3,2013-08-07 16:16:00,
2013-08-07 10:21:00,69.3,49.3,30.10,NNE,29,0.0,0.0,49,0.00,,,0.00,vanprod-2.5-rc3,2013-08-07 16:21:00,
2013-08-07 10:26:00,69.5,49.5,30.10,NNE,22,0.0,0.0,49,0.00,,,0.00,vanprod-2.5-rc3,2013-08-07 16:26:00,
2013-08-07 10:31:00,69.7,49.7,30.10,North,6,0.0,0.0,49,0.00,,,0.00,vanprod-2.5-rc3,2013-08-07 16:31:00,
2013-08-07 10:36:00,70.1,49.5,30.09,SSE,158,0.0,0.0,48,0.00,,,0.00,vanprod-2.5-rc3,2013-08-07 16:36:00,
2013-08-07 10:41:00,70.6,48.8,30.09,South,184,0.0,0.0,46,0.00,,,0.00,vanprod-2.5-rc3,2013-08-07 16:41:00,
2013-08-07 10:46:00,71.1,49.9,30.09,South,178,0.0,0.0,47,0.00,,,0.00,vanprod-2.5-rc3,2013-08-07 16:46:00,
2013-08-07 10:51:00,71.9,49.4,30.10,South,174,0.0,0.0,45,0.00,,,0.00,vanprod-2.5-rc3,2013-08-07 16:51:00,
2013-08-07 10:56:00,72.6,49.5,30.10,South,190,0.0,0.0,44,0.00,,,0.00,vanprod-2.5-rc3,2013-08-07 16:56:00,
2013-08-07 11:01:00,73.2,49.4,30.10,SSW,192,0.0,0.0,43,0.00,,,0.00,vanprod-2.5-rc3,2013-08-07 17:01:00,
2013-08-07 11:06:00,73.6,50.4,30.10,South,180,0.0,0.0,44,0.00,,,0.00,vanprod-2.5-rc3,2013-08-07 17:06:00,
2013-08-07 11:11:00,74.2,50.3,30.10,SSE,160,0.0,0.0,43,0.00,,,0.00,vanprod-2.5-rc3,2013-08-07 17:11:00,
2013-08-07 11:16:00,74.4,49.8,30.10,NNW,345,2.0,3.0,42,0.00,,,0.00,vanprod-2.5-rc3,2013-08-07 17:16:00,
2013-08-07 11:21:00,73.9,48.7,30.10,NE,53,0.0,0.0,41,0.00,,,0.00,vanprod-2.5-rc3,2013-08-07 17:21:00,
2013-08-07 11:26:00,73.7,48.6,30.10,North,350,0.0,0.0,41,0.00,,,0.00,vanprod-2.5-rc3,2013-08-07 17:26:00,
2013-08-07 11:31:00,73.8,49.3,30.09,ENE,70,0.0,0.0,42,0.00,,,0.00,vanprod-2.5-rc3,2013-08-07 17:31:00,
2013-08-07 11:36:00,74.5,49.3,30.08,ESE,109,0.0,0.0,41,0.00,,,0.00,vanprod-2.5-rc3,2013-08-07 17:36:00,
2013-08-07 11:41:00,75.2,49.2,30.08,South,172,0.0,0.0,40,0.00,,,0.00,vanprod-2.5-rc3,2013-08-07 17:41:00,
2013-08-07 11:46:00,75.1,49.2,30.08,South,173,0.0,0.0,40,0.00,,,0.00,vanprod-2.5-rc3,2013-08-07 17:46:00,
2013-08-07 11:51:00,74.8,48.9,30.08,SW,215,0.0,0.0,40,0.00,,,0.00,vanprod-2.5-rc3,2013-08-07 17:51:00,
2013-08-07 11:56:00,74.6,48.7,30.08,SW,219,0.0,0.0,40,0.00,,,0.00,vanprod-2.5-rc3,2013-08-07 17:56:00,
2013-08-07 12:01:00,75.0,49.1,30.09,SW,219,0.0,0.0,40,0.00,,,0.00,vanprod-2.5-rc3,2013-08-07 18:01:00,
2013-08-07 12:06:00,75.4,49.4,30.09,NNE,24,0.0,0.0,40,0.00,,,0.00,vanprod-2.5-rc3,2013-08-07 18:06:00,
2013-08-07 12:11:00,75.4,49.4,30.09,NNW,341,4.0,0.0,40,0.00,,,0.00,vanprod-2.5-rc3,2013-08-07 18:11:00,
2013-08-07 12:16:00,75.0,48.4,30.09,North,356,3.0,3.0,39,0.00,,,0.00,vanprod-2.5-rc3,2013-08-07 18:16:00,
2013-08-07 12:21:00,74.6,48.0,30.09,North,350,3.0,3.0,39,0.00,,,0.00,vanprod-2.5-rc3,2013-08-07 18:21:00,
2013-08-07 12:26:00,74.7,48.8,30.09,North,9,0.0,0.0,40,0.00,,,0.00,vanprod-2.5-rc3,2013-08-07 18:26:00,
2013-08-07 12:31:00,75.7,48.3,30.08,North,9,1.0,4.0,38,0.00,,,0.00,vanprod-2.5-rc3,2013-08-07 18:31:00,
2013-08-07 12:36:00,75.8,48.4,30.09,NW,307,0.0,0.0,38,0.00,,,0.00,vanprod-2.5-rc3,2013-08-07 18:36:00,
2013-08-07 12:41:00,76.1,48.0,30.08,NW,326,2.0,2.0,37,0.00,,,0.00,vanprod-2.5-rc3,2013-08-07 18:41:00,
2013-08-07 12:46:00,76.3,48.1,30.08,NW,317,1.0,2.0,37,0.00,,,0.00,vanprod-2.5-rc3,2013-08-07 18:46:00,
2013-08-07 12:51:00,76.5,48.3,30.07,NNW,333,0.0,0.0,37,0.00,,,0.00,vanprod-2.5-rc3,2013-08-07 18:51:00,
2013-08-07 12:56:00,77.0,48.0,30.07,NNW,338,0.0,2.0,36,0.00,,,0.00,vanprod-2.5-rc3,2013-08-07 18:56:00,
2013-08-07 13:01:00,77.3,48.3,30.06,NNW,339,0.0,0.0,36,0.00,,,0.00,vanprod-2.5-rc3,2013-08-07 19:01:00,
2013-08-07 13:06:00,77.9,48.1,30.06,SW,215,0.0,0.0,35,0.00,,,0.00,vanprod-2.5-rc3,2013-08-07 19:06:00,
2013-08-07 13:11:00,78.7,48.8,30.07,South,185,0.0,1.0,35,0.00,,,0.00,vanprod-2.5-rc3,2013-08-07 19:11:00,
2013-08-07 13:16:00,78.7,48.8,30.07,SSW,204,0.0,0.0,35,0.00,,,0.00,vanprod-2.5-rc3,2013-08-07 19:16:00,
2013-08-07 13:21:00,78.7,49.5,30.07,SSW,192,0.0,0.0,36,0.00,,,0.00,vanprod-2.5-rc3,2013-08-07 19:21:00,
2013-08-07 13:26:00,79.2,49.2,30.06,SSW,212,0.0,0.0,35,0.00,,,0.00,vanprod-2.5-rc3,2013-08-07 19:26:00,
2013-08-07 13:31:00,79.9,49.1,30.06,NE,45,0.0,0.0,34,0.00,,,0.00,vanprod-2.5-rc3,2013-08-07 19:31:00,
2013-08-07 13:36:00,80.9,49.1,30.05,WNW,299,0.0,0.0,33,0.00,,,0.00,vanprod-2.5-rc3,2013-08-07 19:36:00,
2013-08-07 13:41:00,81.2,48.6,30.05,NNW,328,4.0,4.0,32,0.00,,,0.00,vanprod-2.5-rc3,2013-08-07 19:41:00,
2013-08-07 13:46:00,80.5,48.8,30.04,North,360,1.0,0.0,33,0.00,,,0.00,vanprod-2.5-rc3,2013-08-07 19:46:00,
2013-08-07 13:51:00,80.3,48.6,30.05,West,267,1.0,4.0,33,0.00,,,0.00,vanprod-2.5-rc3,2013-08-07 19:51:00,
2013-08-07 13:56:00,80.0,49.1,30.05,North,1,0.0,0.0,34,0.00,,,0.00,vanprod-2.5-rc3,2013-08-07 19:56:00,
2013-08-07 14:01:00,79.9,48.3,30.04,North,4,0.0,1.0,33,0.00,,,0.00,vanprod-2.5-rc3,2013-08-07 20:01:00,
2013-08-07 14:06:00,79.8,48.2,30.04,NNW,336,0.0,0.0,33,0.00,,,0.00,vanprod-2.5-rc3,2013-08-07 20:06:00,
2013-08-07 14:11:00,80.0,49.1,30.06,North,351,1.0,0.0,34,0.00,,,0.00,vanprod-2.5-rc3,2013-08-07 20:11:00,
2013-08-07 14:16:00,80.6,48.9,30.06,North,8,3.0,3.0,33,0.00,,,0.00,vanprod-2.5-rc3,2013-08-07 20:16:00,
2013-08-07 14:21:00,81.4,49.6,30.06,NNE,18,5.0,6.0,33,0.00,,,0.00,vanprod-2.5-rc3,2013-08-07 20:21:00,
2013-08-07 14:26:00,81.6,48.1,30.06,NE,43,11.0,11.0,31,0.00,,,0.00,vanprod-2.5-rc3,2013-08-07 20:26:00,
2013-08-07 14:31:00,81.5,48.0,30.06,ENE,61,10.0,10.0,31,0.00,,,0.00,vanprod-2.5-rc3,2013-08-07 20:31:00,
2013-08-07 14:36:00,81.3,47.8,30.04,ENE,68,11.0,19.0,31,0.00,,,0.00,vanprod-2.5-rc3,2013-08-07 20:36:00,
2013-08-07 14:41:00,81.8,47.4,30.06,NE,50,15.0,18.0,30,0.00,,,0.00,vanprod-2.5-rc3,2013-08-07 20:41:00,
2013-08-07 14:46:00,82.1,47.6,30.05,ENE,60,13.0,19.0,30,0.00,,,0.00,vanprod-2.5-rc3,2013-08-07 20:46:00,
2013-08-07 14:51:00,82.1,46.7,30.05,ENE,60,14.0,14.0,29,0.00,,,0.00,vanprod-2.5-rc3,2013-08-07 20:51:00,
2013-08-07 14:56:00,82.9,46.5,30.05,ENE,59,11.0,11.0,28,0.00,,,0.00,vanprod-2.5-rc3,2013-08-07 20:56:00,
2013-08-07 15:01:00,83.0,45.6,30.04,ENE,77,14.0,14.0,27,0.00,,,0.00,vanprod-2.5-rc3,2013-08-07 21:01:00,
2013-08-07 15:06:00,83.4,45.9,30.04,ENE,65,8.0,14.0,27,0.00,,,0.00,vanprod-2.5-rc3,2013-08-07 21:06:00,
2013-08-07 15:11:00,83.5,46.0,30.04,ENE,60,11.0,13.0,27,0.00,,,0.00,vanprod-2.5-rc3,2013-08-07 21:11:00,
2013-08-07 15:16:00,84.2,45.6,30.04,ENE,67,9.0,9.0,26,0.00,,,0.00,vanprod-2.5-rc3,2013-08-07 21:16:00,
2013-08-07 15:21:00,84.9,47.2,30.02,East,99,6.0,6.0,27,0.00,,,0.00,vanprod-2.5-rc3,2013-08-07 21:21:00,
2013-08-07 15:26:00,85.3,45.5,30.01,NE,49,8.0,8.0,25,0.00,,,0.00,vanprod-2.5-rc3,2013-08-07 21:26:00,
2013-08-07 15:31:00,84.9,46.2,30.01,ENE,69,5.0,5.0,26,0.00,,,0.00,vanprod-2.5-rc3,2013-08-07 21:31:00,
2013-08-07 15:36:00,85.8,47.0,30.01,ENE,68,3.0,7.0,26,0.00,,,0.00,vanprod-2.5-rc3,2013-08-07 21:36:00,
2013-08-07 15:41:00,87.0,47.0,30.02,SSE,167,3.0,4.0,25,0.00,,,0.00,vanprod-2.5-rc3,2013-08-07 21:41:00,
2013-08-07 15:46:00,88.0,45.6,30.01,ENE,57,5.0,6.0,23,0.00,,,0.00,vanprod-2.5-rc3,2013-08-07 21:46:00,
2013-08-07 15:51:00,87.9,44.3,30.00,NNE,28,8.0,9.0,22,0.00,,,0.00,vanprod-2.5-rc3,2013-08-07 21:51:00,
2013-08-07 15:56:00,86.8,45.7,30.01,ENE,67,4.0,8.0,24,0.00,,,0.00,vanprod-2.5-rc3,2013-08-07 21:56:00,
2013-08-07 16:01:00,87.8,45.4,30.01,NE,53,2.0,4.0,23,0.00,,,0.00,vanprod-2.5-rc3,2013-08-07 22:01:00,
2013-08-07 16:06:00,87.3,48.3,29.99,ENE,76,1.0,4.0,26,0.00,,,0.00,vanprod-2.5-rc3,2013-08-07 22:06:00,
2013-08-07 16:11:00,87.2,46.1,29.99,NNE,33,3.0,3.0,24,0.00,,,0.00,vanprod-2.5-rc3,2013-08-07 22:11:00,
2013-08-07 16:16:00,87.0,44.8,29.99,NNE,33,3.0,5.0,23,0.00,,,0.00,vanprod-2.5-rc3,2013-08-07 22:16:00,
2013-08-07 16:21:00,86.7,45.6,29.99,NE,47,3.0,0.0,24,0.00,,,0.00,vanprod-2.5-rc3,2013-08-07 22:21:00,
2013-08-07 16:26:00,87.2,46.1,29.99,ENE,77,6.0,6.0,24,0.00,,,0.00,vanprod-2.5-rc3,2013-08-07 22:26:00,
2013-08-07 16:31:00,89.0,46.4,30.00,East,79,4.0,0.0,23,0.00,,,0.00,vanprod-2.5-rc3,2013-08-07 22:31:00,
2013-08-07 16:36:00,90.9,46.8,29.99,ENE,58,3.0,5.0,22,0.00,,,0.00,vanprod-2.5-rc3,2013-08-07 22:36:00,
2013-08-07 16:41:00,88.7,46.2,30.00,NNE,32,11.0,12.0,23,0.00,,,0.00,vanprod-2.5-rc3,2013-08-07 22:41:00,
2013-08-07 16:46:00,84.8,45.1,30.00,NNE,28,8.0,9.0,25,0.00,,,0.00,vanprod-2.5-rc3,2013-08-07 22:46:00,
2013-08-07 16:51:00,82.7,45.4,29.98,NE,37,5.0,5.0,27,0.00,,,0.00,vanprod-2.5-rc3,2013-08-07 22:51:00,
2013-08-07 16:56:00,82.2,45.9,29.99,NNE,32,5.0,5.0,28,0.00,,,0.00,vanprod-2.5-rc3,2013-08-07 22:56:00,
2013-08-07 17:01:00,82.7,44.4,30.00,ENE,57,3.0,3.0,26,0.00,,,0.00,vanprod-2.5-rc3,2013-08-07 23:01:00,
2013-08-07 17:06:00,83.5,46.0,30.00,ENE,65,0.0,4.0,27,0.00,,,0.00,vanprod-2.5-rc3,2013-08-07 23:06:00,
2013-08-07 17:11:00,85.3,45.5,29.99,East,81,7.0,7.0,25,0.00,,,0.00,vanprod-2.5-rc3,2013-08-07 23:11:00,
2013-08-07 17:16:00,87.1,46.0,30.00,ESE,109,3.0,3.0,24,0.00,,,0.00,vanprod-2.5-rc3,2013-08-07 23:16:00,
2013-08-07 17:21:00,87.7,45.3,30.00,South,169,1.0,0.0,23,0.00,,,0.00,vanprod-2.5-rc3,2013-08-07 23:21:00,
2013-08-07 17:26:00,85.6,44.7,29.99,SW,217,0.0,0.0,24,0.00,,,0.00,vanprod-2.5-rc3,2013-08-07 23:26:00,
2013-08-07 17:31:00,82.7,44.4,30.00,NW,320,12.0,15.0,26,0.00,,,0.00,vanprod-2.5-rc3,2013-08-07 23:31:00,
2013-08-07 17:36:00,80.4,43.4,30.01,NW,311,12.0,12.0,27,0.00,,,0.00,vanprod-2.5-rc3,2013-08-07 23:36:00,
2013-08-07 17:41:00,80.0,42.1,30.00,NNW,331,9.0,10.0,26,0.00,,,0.00,vanprod-2.5-rc3,2013-08-07 23:41:00,
2013-08-07 17:46:00,80.3,42.3,30.00,NW,307,6.0,12.0,26,0.00,,,0.00,vanprod-2.5-rc3,2013-08-07 23:46:00,
2013-08-07 17:51:00,81.0,41.9,29.99,NW,322,8.0,8.0,25,0.00,,,0.00,vanprod-2.5-rc3,2013-08-07 23:51:00,
2013-08-07 17:56:00,81.0,41.9,29.99,NW,319,1.0,6.0,25,0.00,,,0.00,vanprod-2.5-rc3,2013-08-07 23:56:00,
2013-08-07 18:01:00,81.3,43.2,29.98,NW,323,5.0,5.0,26,0.00,,,0.00,vanprod-2.5-rc3,2013-08-08 00:01:00,
2013-08-07 18:06:00,81.2,44.1,29.98,SSW,199,2.0,2.0,27,0.00,,,0.00,vanprod-2.5-rc3,2013-08-08 00:06:00,
2013-08-07 18:11:00,81.3,43.2,29.99,SW,232,4.0,6.0,26,0.00,,,0.00,vanprod-2.5-rc3,2013-08-08 00:11:00,
2013-08-07 18:16:00,80.8,43.7,29.98,SW,221,5.0,7.0,27,0.00,,,0.00,vanprod-2.5-rc3,2013-08-08 00:16:00,
2013-08-07 18:21:00,80.4,43.4,29.98,SW,235,4.0,6.0,27,0.00,,,0.00,vanprod-2.5-rc3,2013-08-08 00:21:00,
2013-08-07 18:26:00,79.7,43.7,29.98,SW,218,6.0,6.0,28,0.00,,,0.00,vanprod-2.5-rc3,2013-08-08 00:26:00,
2013-08-07 18:31:00,79.1,41.3,29.99,SW,221,6.0,0.0,26,0.00,,,0.00,vanprod-2.5-rc3,2013-08-08 00:31:00,
2013-08-07 18:36:00,78.5,39.8,29.99,WSW,238,3.0,4.0,25,0.00,,,0.00,vanprod-2.5-rc3,2013-08-08 00:36:00,
2013-08-07 18:41:00,78.1,39.5,29.99,WSW,251,2.0,2.0,25,0.00,,,0.00,vanprod-2.5-rc3,2013-08-08 00:41:00,
2013-08-07 18:46:00,77.8,41.2,29.98,WSW,250,3.0,4.0,27,0.00,,,0.00,vanprod-2.5-rc3,2013-08-08 00:46:00,
2013-08-07 18:51:00,77.5,39.9,29.99,WSW,237,2.0,2.0,26,0.00,,,0.00,vanprod-2.5-rc3,2013-08-08 00:51:00,
2013-08-07 18:56:00,77.7,42.0,29.98,SSW,201,0.0,1.0,28,0.00,,,0.00,vanprod-2.5-rc3,2013-08-08 00:56:00,
2013-08-07 19:01:00,77.7,41.1,29.98,SW,232,0.0,0.0,27,0.00,,,0.00,vanprod-2.5-rc3,2013-08-08 01:01:00,
2013-08-07 19:06:00,77.5,39.9,29.99,West,267,0.0,0.0,26,0.00,,,0.00,vanprod-2.5-rc3,2013-08-08 01:06:00,
2013-08-07 19:11:00,77.1,38.6,29.96,West,267,0.0,0.0,25,0.00,,,0.00,vanprod-2.5-rc3,2013-08-08 01:11:00,
2013-08-07 19:16:00,76.9,39.4,29.97,WNW,290,0.0,0.0,26,0.00,,,0.00,vanprod-2.5-rc3,2013-08-08 01:16:00,
2013-08-07 19:21:00,76.7,39.3,29.97,WNW,290,0.0,0.0,26,0.00,,,0.00,vanprod-2.5-rc3,2013-08-08 01:21:00,
2013-08-07 19:26:00,76.4,40.0,29.98,WNW,290,0.0,0.0,27,0.00,,,0.00,vanprod-2.5-rc3,2013-08-08 01:26:00,
2013-08-07 19:31:00,76.2,39.8,29.97,WNW,290,0.0,0.0,27,0.00,,,0.00,vanprod-2.5-rc3,2013-08-08 01:31:00,
2013-08-07 19:36:00,76.1,40.7,29.97,WSW,237,0.0,0.0,28,0.00,,,0.00,vanprod-2.5-rc3,2013-08-08 01:36:00,
2013-08-07 19:41:00,76.0,39.6,29.97,SSW,212,0.0,0.0,27,0.00,,,0.00,vanprod-2.5-rc3,2013-08-08 01:41:00,
2013-08-07 19:46:00,75.8,39.5,29.98,ESE,110,0.0,0.0,27,0.00,,,0.00,vanprod-2.5-rc3,2013-08-08 01:46:00,
2013-08-07 19:51:00,75.7,39.4,29.98,ESE,107,0.0,0.0,27,0.00,,,0.00,vanprod-2.5-rc3,2013-08-08 01:51:00,
2013-08-07 19:56:00,75.6,39.3,29.98,ESE,107,0.0,0.0,27,0.00,,,0.00,vanprod-2.5-rc3,2013-08-08 01:56:00,
2013-08-07 20:01:00,75.4,40.1,29.99,ESE,107,0.0,0.0,28,0.00,,,0.00,vanprod-2.5-rc3,2013-08-08 02:01:00,
2013-08-07 20:06:00,74.9,38.7,30.00,NNE,33,5.0,10.0,27,0.00,,,0.00,vanprod-2.5-rc3,2013-08-08 02:06:00,
2013-08-07 20:11:00,74.4,41.0,29.99,NE,55,0.0,1.0,30,0.00,,,0.00,vanprod-2.5-rc3,2013-08-08 02:11:00,
2013-08-07 20:16:00,74.0,42.3,30.00,East,80,7.0,14.0,32,0.00,,,0.00,vanprod-2.5-rc3,2013-08-08 02:16:00,
2013-08-07 20:21:00,73.8,42.9,30.00,East,80,6.0,6.0,33,0.00,,,0.00,vanprod-2.5-rc3,2013-08-08 02:21:00,
2013-08-07 20:26:00,73.6,42.8,30.00,East,94,2.0,4.0,33,0.00,,,0.00,vanprod-2.5-rc3,2013-08-08 02:26:00,
2013-08-07 20:31:00,73.4,42.6,30.02,East,80,1.0,3.0,33,0.00,,,0.00,vanprod-2.5-rc3,2013-08-08 02:31:00,
2013-08-07 20:36:00,73.1,42.3,30.02,ESE,106,2.0,0.0,33,0.00,,,0.00,vanprod-2.5-rc3,2013-08-08 02:36:00,
2013-08-07 20:41:00,73.0,42.2,30.02,SE,130,0.0,0.0,33,0.00,,,0.00,vanprod-2.5-rc3,2013-08-08 02:41:00,
2013-08-07 20:46:00,72.8,42.8,30.02,SE,130,0.0,1.0,34,0.00,,,0.00,vanprod-2.5-rc3,2013-08-08 02:46:00,
2013-08-07 20:51:00,72.7,42.7,30.02,SSE,166,0.0,0.0,34,0.00,,,0.00,vanprod-2.5-rc3,2013-08-08 02:51:00,
2013-08-07 20:56:00,72.6,42.7,30.02,South,186,0.0,0.0,34,0.00,,,0.00,vanprod-2.5-rc3,2013-08-08 02:56:00,
2013-08-07 21:01:00,72.5,42.6,30.02,WSW,245,0.0,0.0,34,0.00,,,0.00,vanprod-2.5-rc3,2013-08-08 03:01:00,
2013-08-07 21:06:00,72.3,42.4,30.02,SSW,207,0.0,0.0,34,0.00,,,0.00,vanprod-2.5-rc3,2013-08-08 03:06:00,
2013-08-07 21:11:00,71.9,42.8,30.03,West,279,0.0,1.0,35,0.00,,,0.00,vanprod-2.5-rc3,2013-08-08 03:11:00,
2013-08-07 21:16:00,71.8,42.7,30.03,NW,314,0.0,0.0,35,0.00,,,0.00,vanprod-2.5-rc3,2013-08-08 03:16:00,
2013-08-07 21:21:00,71.3,43.0,30.02,WSW,237,2.0,2.0,36,0.00,,,0.00,vanprod-2.5-rc3,2013-08-08 03:21:00,
2013-08-07 21:26:00,70.9,42.6,30.02,SW,235,1.0,3.0,36,0.00,,,0.00,vanprod-2.5-rc3,2013-08-08 03:26:00,
2013-08-07 21:31:00,70.7,42.5,30.03,SSW,206,2.0,0.0,36,0.00,,,0.00,vanprod-2.5-rc3,2013-08-08 03:31:00,
2013-08-07 21:36:00,70.7,42.5,30.03,SSW,210,1.0,1.0,36,0.00,,,0.00,vanprod-2.5-rc3,2013-08-08 03:36:00,
2013-08-07 21:41:00,70.6,43.1,30.03,SSW,213,0.0,0.0,37,0.00,,,0.00,vanprod-2.5-rc3,2013-08-08 03:41:00,
2013-08-07 21:46:00,70.4,42.9,30.03,SW,222,1.0,2.0,37,0.00,,,0.00,vanprod-2.5-rc3,2013-08-08 03:46:00,
2013-08-07 21:51:00,70.2,42.7,30.03,SW,227,1.0,2.0,37,0.00,,,0.00,vanprod-2.5-rc3,2013-08-08 03:51:00,
2013-08-07 21:56:00,70.1,42.6,30.03,SSW,195,1.0,4.0,37,0.00,,,0.00,vanprod-2.5-rc3,2013-08-08 03:56:00,
2013-08-07 22:01:00,70.1,42.6,30.03,SSW,196,0.0,0.0,37,0.00,,,0.00,vanprod-2.5-rc3,2013-08-08 04:01:00,
2013-08-07 22:02:00,70.1,42.6,30.03,SSW,195,0.0,0.0,37,0.00,,,0.00,vanprod-2.5-rc3,2013-08-08 04:02:00,
2013-08-07 22:07:00,70.0,41.8,30.03,SW,215,1.0,0.0,36,0.00,,,0.00,vanprod-2.5-rc3,2013-08-08 04:07:00,
2013-08-07 22:12:00,69.9,41.8,30.03,SSW,199,0.0,0.0,36,0.00,,,0.00,vanprod-2.5-rc3,2013-08-08 04:12:00,
2013-08-07 22:17:00,69.8,41.7,30.03,SSW,202,0.0,1.0,36,0.00,,,0.00,vanprod-2.5-rc3,2013-08-08 04:17:00,
2013-08-07 22:22:00,69.7,42.3,30.03,SSW,210,0.0,0.0,37,0.00,,,0.00,vanprod-2.5-rc3,2013-08-08 04:22:00,
2013-08-07 22:27:00,69.6,42.2,30.03,SSW,210,0.0,0.0,37,0.00,,,0.00,vanprod-2.5-rc3,2013-08-08 04:27:00,
2013-08-07 22:32:00,69.6,42.2,30.03,West,261,1.0,1.0,37,0.00,,,0.00,vanprod-2.5-rc3,2013-08-08 04:32:00,
2013-08-07 22:37:00,69.7,42.3,30.03,WSW,252,0.0,0.0,37,0.00,,,0.00,vanprod-2.5-rc3,2013-08-08 04:37:00,
2013-08-07 22:42:00,69.6,42.9,30.03,West,275,1.0,2.0,38,0.00,,,0.00,vanprod-2.5-rc3,2013-08-08 04:42:00,
2013-08-07 22:47:00,69.7,43.0,30.03,West,279,1.0,2.0,38,0.00,,,0.00,vanprod-2.5-rc3,2013-08-08 04:47:00,
2013-08-07 22:52:00,69.5,42.8,30.04,West,267,3.0,4.0,38,0.00,,,0.00,vanprod-2.5-rc3,2013-08-08 04:52:00,
2013-08-07 22:57:00,69.4,42.7,30.03,West,265,0.0,0.0,38,0.00,,,0.00,vanprod-2.5-rc3,2013-08-08 04:57:00,
2013-08-07 23:02:00,69.3,43.3,30.02,SW,224,2.0,3.0,39,0.00,,,0.00,vanprod-2.5-rc3,2013-08-08 05:02:00,
2013-08-07 23:07:00,68.9,43.6,30.03,SW,222,0.0,0.0,40,0.00,,,0.00,vanprod-2.5-rc3,2013-08-08 05:07:00,
2013-08-07 23:12:00,68.3,44.3,30.04,SW,233,2.0,5.0,42,0.00,,,0.00,vanprod-2.5-rc3,2013-08-08 05:12:00,
2013-08-07 23:17:00,67.9,44.0,30.04,SW,232,1.0,3.0,42,0.00,,,0.00,vanprod-2.5-rc3,2013-08-08 05:17:00,
2013-08-07 23:22:00,67.6,44.3,30.04,SW,226,3.0,4.0,43,0.00,,,0.00,vanprod-2.5-rc3,2013-08-08 05:22:00,
2013-08-07 23:27:00,67.5,44.2,30.04,WSW,238,4.0,4.0,43,0.00,,,0.00,vanprod-2.5-rc3,2013-08-08 05:27:00,
2013-08-07 23:32:00,67.7,45.0,30.04,West,268,10.0,11.0,44,0.00,,,0.00,vanprod-2.5-rc3,2013-08-08 05:32:00,
2013-08-07 23:37:00,67.9,45.2,30.04,WSW,258,13.0,13.0,44,0.00,,,0.00,vanprod-2.5-rc3,2013-08-08 05:37:00,
2013-08-07 23:42:00,68.0,45.3,30.04,West,263,8.0,12.0,44,0.00,,,0.00,vanprod-2.5-rc3,2013-08-08 05:42:00,
2013-08-07 23:47:00,67.9,45.2,30.04,West,260,10.0,15.0,44,0.00,,,0.00,vanprod-2.5-rc3,2013-08-08 05:47:00,
2013-08-07 23:52:00,67.7,45.6,30.04,WSW,253,13.0,14.0,45,0.00,,,0.00,vanprod-2.5-rc3,2013-08-08 05:52:00,
2013-08-07 23:57:00,67.6,45.5,30.04,WSW,257,10.0,11.0,45,0.00,,,0.00,vanprod-2.5-rc3,2013-08-08 05:57:00,